Regional Weather Roundup
Issued by NWS

Home | Current Version | Previous Version | Text Only | Print | Product List | Glossary On
Versions: 1 2 3 4 5 6 7 8 9 10 11 12 13 14 15 16 17 18 19 20 21 22 23 24 25 26 27 28 29 30 31 32 33 34 35 36 37 38 39 40 41 42 43 44 45 46 47 48 49 50
000
ASUS44 KLIX 310410
RWRLA
LOUISIANA WEATHER ROUNDUP
NATIONAL WEATHER SERVICE NEW ORLEANS LA
1100 PM CDT SUN AUG 30 2015

NOTE: "FAIR" INDICATES FEW OR NO CLOUDS BELOW 12,000 FEET WITH NO
      SIGNIFICANT WEATHER AND/OR OBSTRUCTIONS TO VISIBILITY.
      SKY/WX - SKY CONDITION AND SIGNIFICANT WEATHER.
      TMP - AIR TEMPERATURE.    DP   - DEWPOINT TEMPERATURE.
      RH  - RELATIVE HUMIDITY.  PRES - PRESSURE.
      HX  - HEAT INDEX.         WCI  - WIND CHILL INDEX.

*  THESE STATIONS ARE NOT NWS OR FAA STATIONS AND ARE NOT UNDER
   NWS QUALITY CONTROL.

LAZ040-048-061>063-065-066-069-310500-
SOUTHEAST LOUISIANA

CITY           SKY/WX    TMP DP  RH WIND       PRES   REMARKS
N.O. AUDUBON     N/A     78  73  82 MISG        N/A
N.O. INTL ARPT PTCLDY    80  67  64 SW7       30.02R
N.O. LAKEFRONT PTCLDY    81  70  69 SW6       30.02R
N.O. DOWNTOWN* FAIR      82  70  65 CALM      30.03S
RESERVE*       FAIR      80  70  70 CALM      30.02S
SLIDELL        CLEAR     74  71  91 CALM      30.02R
BATON ROUGE    CLEAR     79  71  76 SW7       30.02R
BOOTHVILLE     PTCLDY    80  71  74 CALM      30.02S
BELLE CHASSE   PTCLDY    73  70  90 CALM      30.01S
BOGALUSA*      NOT AVBL
GALLIANO*      CLEAR     75  71  86 CALM      30.01F
NEW ROADS*     FAIR      76  71  82 SW6       30.02S
GONZALES*      FAIR      77  71  83 SW3       30.01S
HAMMOND*       CLEAR     73  68  83 CALM      30.04R
HOUMA*         CLEAR     74  71  91 CALM      30.02S
PORT FOURCHON* CLEAR     84  70  61 CALM      30.03S

$$

LAZ041-044-053-054-310500-
SOUTHWEST LOUISIANA

CITY           SKY/WX    TMP DP  RH WIND       PRES   REMARKS
LAKE CHARLES   CLEAR     73  70  90 CALM      30.01R
LAFAYETTE      CLEAR     75  72  90 CALM      30.02R
PATTERSON      CLEAR     75  70  83 CALM      30.04R
SALT POINT       N/A     81  74  79 CALM      30.00R
NEW IBERIA     CLEAR     76  71  85 CALM      30.02S
CHENAULT AIRPK CLEAR     76  71  85 CALM      30.02S

$$

LAZ027-028-310500-
CENTRAL LOUISIANA

CITY           SKY/WX    TMP DP  RH WIND       PRES   REMARKS
FORT POLK      MOCLDY    75  69  81 SE2       30.00S
ALEXANDRIA INT MOCLDY    75  66  73 CALM      29.99S
ALEXANDRIA     MOCLDY    73  66  78 CALM      30.01S

$$

LAZ001-002-310500-
NORTHWEST LOUISIANA

CITY           SKY/WX    TMP DP  RH WIND       PRES   REMARKS
SHREVEPORT     PTCLDY    78  68  71 CALM      29.98S
BARKSDALE AFB  PTCLDY    78  68  72 S2        29.97S
DTN SHREVEPORT PTCLDY    78  68  71 CALM      29.98S

$$

LAZ014-016-310500-
NORTHEAST LOUISIANA

CITY           SKY/WX    TMP DP  RH WIND       PRES   REMARKS
MONROE         CLEAR     80  64  58 S5        29.99S
TALLULAH       PTCLDY    76  65  68 SE3       30.00S

$$



USA.gov is the U.S. government's official web portal to all federal, state and local government web resources and services.